TimeMST,TemperatureF,Dew PointF,Humidity,Sea Level PressureIn,VisibilityMPH,Wind Direction,Wind SpeedMPH,Gust SpeedMPH,PrecipitationIn,Events,Conditions,WindDirDegrees,DateUTC
12:55 AM,27.0,21.9,81,30.37,10.0,WNW,3.5,-,N/A,,Overcast,290,2012-11-12 07:55:00
1:55 AM,27.0,21.0,78,30.35,10.0,West,3.5,-,N/A,,Overcast,280,2012-11-12 08:55:00
2:55 AM,28.0,21.0,75,30.36,10.0,West,3.5,-,N/A,,Overcast,260,2012-11-12 09:55:00
3:55 AM,28.9,21.0,72,30.34,10.0,WSW,3.5,-,N/A,,Overcast,250,2012-11-12 10:55:00
4:55 AM,28.0,21.9,78,30.34,10.0,West,3.5,-,N/A,,Overcast,280,2012-11-12 11:55:00
5:55 AM,28.0,23.0,81,30.33,10.0,Calm,Calm,-,0.00,,Overcast,0,2012-11-12 12:55:00
6:55 AM,28.0,23.0,81,30.33,10.0,SW,3.5,-,N/A,,Overcast,230,2012-11-12 13:55:00
7:55 AM,28.0,21.9,78,30.32,10.0,SW,5.8,-,N/A,,Overcast,220,2012-11-12 14:55:00
8:55 AM,28.9,23.0,78,30.31,10.0,SW,4.6,-,N/A,,Overcast,220,2012-11-12 15:55:00
9:55 AM,30.0,24.1,79,30.31,9.0,WSW,4.6,-,0.00,Snow,Light Snow,240,2012-11-12 16:55:00
10:41 AM,30.2,26.6,86,30.21,2.0,SW,5.8,-,0.00,Snow,Light Snow,230,2012-11-12 17:41:00
10:50 AM,30.2,26.6,86,30.22,1.8,SW,5.8,-,0.00,Snow,Light Snow,230,2012-11-12 17:50:00
10:51 AM,30.0,26.1,85,30.31,1.8,SW,5.8,-,0.00,Snow,Light Snow,230,2012-11-12 17:51:00
11:24 AM,30.2,28.4,93,30.22,1.0,SW,3.5,-,0.01,Snow,Light Snow,230,2012-11-12 18:24:00
11:30 AM,30.2,28.4,93,30.22,1.0,SW,3.5,-,0.01,Snow,Light Snow,230,2012-11-12 18:30:00
11:43 AM,30.2,28.4,93,30.21,2.0,SSW,3.5,-,0.01,Snow,Light Snow,210,2012-11-12 18:43:00
11:52 AM,30.2,28.4,93,30.21,5.0,SSE,5.8,-,0.02,Snow,Light Snow,160,2012-11-12 18:52:00
11:55 AM,30.9,28.9,92,30.30,5.0,South,6.9,-,0.02,Snow,Light Snow,180,2012-11-12 18:55:00
12:55 PM,32.0,28.0,85,30.30,10.0,SSW,3.5,-,0.00,,Overcast,210,2012-11-12 19:55:00
1:06 PM,32.0,28.4,87,30.20,10.0,SW,3.5,-,N/A,,Overcast,220,2012-11-12 20:06:00
1:14 PM,32.0,28.4,87,30.20,10.0,SW,3.5,-,N/A,,Overcast,220,2012-11-12 20:14:00
1:55 PM,33.1,28.0,82,30.28,10.0,SW,4.6,-,0.00,Snow,Light Snow,220,2012-11-12 20:55:00
2:37 PM,33.8,28.4,81,30.19,5.0,Calm,Calm,-,0.00,Snow,Light Snow,0,2012-11-12 21:37:00
2:55 PM,33.1,28.9,85,30.28,6.0,Calm,Calm,-,0.00,Snow,Light Snow,0,2012-11-12 21:55:00
3:48 PM,32.0,28.4,87,30.18,2.5,Calm,Calm,-,0.01,Snow,Light Snow,0,2012-11-12 22:48:00
3:55 PM,32.0,28.9,88,30.27,3.0,NE,3.5,-,0.01,Snow,Light Snow,40,2012-11-12 22:55:00
4:03 PM,32.0,30.2,93,30.18,2.5,NE,3.5,-,0.00,Snow,Snow,40,2012-11-12 23:03:00
4:55 PM,32.0,30.2,93,30.18,10.0,Calm,Calm,-,N/A,,Overcast,0,2012-11-12 23:55:00
5:16 PM,30.2,28.4,93,30.18,10.0,Calm,Calm,-,N/A,,Overcast,0,2012-11-13 00:16:00
5:34 PM,30.2,28.4,93,30.18,9.0,Calm,Calm,-,N/A,,Overcast,0,2012-11-13 00:34:00
5:55 PM,32.0,30.0,92,30.27,4.0,Calm,Calm,-,0.00,Snow,Light Snow,0,2012-11-13 00:55:00
6:27 PM,30.2,30.2,100,30.18,1.8,Calm,Calm,-,0.01,Snow,Light Snow,0,2012-11-13 01:27:00
6:31 PM,30.2,30.2,100,30.18,2.0,Calm,Calm,-,0.01,Snow,Light Snow,0,2012-11-13 01:31:00
6:41 PM,30.2,30.2,100,30.17,4.0,Calm,Calm,-,0.01,Snow,Light Snow,0,2012-11-13 01:41:00
6:53 PM,30.2,30.2,100,30.18,3.0,Calm,Calm,-,0.01,Snow,Light Snow,0,2012-11-13 01:53:00
6:55 PM,30.9,30.0,96,30.27,2.5,Calm,Calm,-,0.01,Snow,Light Snow,0,2012-11-13 01:55:00
7:14 PM,30.2,30.2,100,30.18,1.5,Calm,Calm,-,0.01,Snow,Light Snow,0,2012-11-13 02:14:00
7:26 PM,30.2,30.2,100,30.18,2.0,Calm,Calm,-,0.01,Snow,Light Snow,0,2012-11-13 02:26:00
7:47 PM,30.2,30.2,100,30.18,2.5,Calm,Calm,-,0.01,Snow,Light Snow,0,2012-11-13 02:47:00
7:55 PM,30.0,30.0,100,30.28,2.5,Calm,Calm,-,0.02,Snow,Light Snow,0,2012-11-13 02:55:00
8:10 PM,30.2,30.2,100,30.18,3.0,Calm,Calm,-,0.00,Snow,Light Snow,0,2012-11-13 03:10:00
8:55 PM,30.9,28.9,92,30.27,5.0,Calm,Calm,-,0.00,Snow,Light Snow,0,2012-11-13 03:55:00
9:55 PM,30.9,28.9,92,30.27,7.0,Calm,Calm,-,0.00,Snow,Light Snow,0,2012-11-13 04:55:00
10:19 PM,30.2,30.2,100,30.19,1.8,Calm,Calm,-,0.00,Snow,Light Snow,0,2012-11-13 05:19:00
10:33 PM,30.2,30.2,100,30.19,1.2,Calm,Calm,-,0.01,Snow,Light Snow,0,2012-11-13 05:33:00
10:41 PM,30.2,30.2,100,30.19,2.0,Calm,Calm,-,0.01,Snow,Light Snow,0,2012-11-13 05:41:00
10:51 PM,30.2,30.2,100,30.19,4.0,Calm,Calm,-,0.01,Snow,Light Snow,0,2012-11-13 05:51:00
10:55 PM,30.9,30.0,96,30.28,4.0,Calm,Calm,-,0.01,Snow,Light Snow,0,2012-11-13 05:55:00
11:55 PM,30.9,30.0,96,30.28,6.0,North,-9999.0,-,0.00,,Overcast,0,2012-11-13 06:55:00